Skip Page Navigation
NASA JPL Caltech
NASA Logo - Jet Propulsion Laboratory + View the NASA Portal
+ Center for Near-Earth Object Studies
JPL Home Earth Solar System Stars & Galaxies Technology
JPL Solar System Dynamics
BODIES ORBITS EPHEMERIDES TOOLS PHYSICAL DATA DISCOVERY FAQ SITE MAP
JPL Small-Body Database Browser
Search: [ help ]  
199419 (2006 DG)
Classification: Main-belt Asteroid          SPK-ID: 2199419
Ephemeris | Orbit Diagram | Orbital Elements | Mission Design | Physical Parameters | Discovery Circumstances ]

[ show orbit diagram ]
Orbital Elements at Epoch 2459000.5 (2020-May-31.0) TDB
Reference: JPL 13 (heliocentric ecliptic J2000)
 Element Value Uncertainty (1-sigma)   Units 
e .03868865337787203 2.8914e-07  
a 2.538930696139938 2.0037e-08 au
q 2.44070288648654 7.2507e-07 au
i 9.251653573393224 1.0084e-05 deg
node 38.5787790221767 3.8117e-05 deg
peri 177.3253450998649 0.00045571 deg
M 125.666018650388 0.000469 deg
tp 2458484.689650776303
(2019-Jan-01.18965078)
0.0019274 TDB
period 1477.660609564937
4.05
1.7493e-05
4.789e-08
d
yr
n .2436283390581777 2.8841e-09 deg/d
Q 2.637158505793336 2.0813e-08 au
  Orbit Determination Parameters
   # obs. used (total)      352  
   data-arc span      7263 days (19.89 yr)  
   first obs. used      2000-11-30  
   last obs. used      2020-10-19  
   planetary ephem.      DE431  
   SB-pert. ephem.      SB431-N16  
   condition code      0  
   norm. resid. RMS      .5866  
   source      ORB  
   producer      Otto Matic  
   solution date      2020-Nov-12 05:26:16  

Additional Information
 Earth MOID = 1.43317 au 
 Jupiter MOID = 2.3251 au 
 T_jup = 3.427 
[ show covariance matrix ]

Ephemeris | Orbit Diagram | Orbital Elements | Mission Design | Physical Parameters | Discovery Circumstances ]

Physical Parameter Table
Parameter Symbol Value Units Sigma Reference Notes
absolute magnitude H 16.1   n/a MPO436973  

199419 (2006 DG)          Discovered 2006-Feb-21 by Lowe, A. at Mayhill
Reference: 20081113/Numbers.arcLast Updated: 2008-11-17

Alternate Designations
 2006 DG = 2004 TL236 
Ephemeris | Orbit Diagram | Orbital Elements | Mission Design | Physical Parameters | Discovery Circumstances ]
ABOUT SSD CREDITS/AWARDS PRIVACY/COPYRIGHT GLOSSARY LINKS
FirstGov 2020-Dec-05 10:04 UT
(server date/time)  
NASA Home Page
Site Manager:   Ryan S. Park
Webmaster  Alan B. Chamberlin